N66HR EDLP-EDDH

Flight info

Callsign N66HR
Flight time 0h 41m
Altitude 14000
Route WRB1X/06 WRB P12 NORTA P605 NOLGO NOLG6A EDDH/05
Aircraft SF50/L-V/N

Departure

Time 2026-05-06 12:19
Airport Paderborn Lippstadt Airport (EDLP)

Arrival

Time 2026-05-06 13:00
Airport Hamburg Helmut Schmidt Airport (EDDH)
Time Latitude Longitude Altitude Speed Heading
2026-05-06 12:10 51.60988 8.61545 720 ft 0 kts 147°
2026-05-06 12:16 51.60988 8.61546 720 ft 0 kts 147°
2026-05-06 12:16 51.60974 8.61513 720 ft 7 kts 323°
2026-05-06 12:16 51.60982 8.61436 717 ft 11 kts 240°
2026-05-06 12:17 51.60964 8.61302 713 ft 13 kts 287°
2026-05-06 12:17 51.60984 8.61100 706 ft 22 kts 260°
2026-05-06 12:17 51.60909 8.60889 705 ft 20 kts 238°
2026-05-06 12:17 51.60841 8.60721 703 ft 16 kts 238°
2026-05-06 12:18 51.60785 8.60584 702 ft 13 kts 238°
2026-05-06 12:18 51.60762 8.60421 701 ft 16 kts 292°
2026-05-06 12:18 51.60850 8.60347 697 ft 12 kts 14°
2026-05-06 12:18 51.60922 8.60457 695 ft 27 kts 54°
2026-05-06 12:19 51.61160 8.61031 697 ft 91 kts 57°
2026-05-06 12:19 51.61540 8.62005 955 ft 112 kts 55°
2026-05-06 12:19 51.61978 8.63097 1425 ft 121 kts 56°
2026-05-06 12:19 51.62454 8.64249 1948 ft 130 kts 49°
2026-05-06 12:20 51.62975 8.65491 2475 ft 143 kts 57°
2026-05-06 12:20 51.63547 8.66891 2994 ft 157 kts 56°
2026-05-06 12:20 51.64098 8.68457 3512 ft 172 kts 77°
2026-05-06 12:20 51.64347 8.70411 4059 ft 185 kts 81°
2026-05-06 12:21 51.64608 8.72476 4578 ft 197 kts 79°
2026-05-06 12:21 51.64888 8.74692 5089 ft 207 kts 79°
2026-05-06 12:21 51.65093 8.76996 5578 ft 214 kts 98°
2026-05-06 12:21 51.64454 8.79156 6125 ft 218 kts 123°
2026-05-06 12:22 51.63612 8.81193 6639 ft 223 kts 126°
2026-05-06 12:22 51.62722 8.83262 7149 ft 227 kts 127°
2026-05-06 12:22 51.61813 8.85358 7658 ft 230 kts 127°
2026-05-06 12:22 51.60903 8.87454 8152 ft 233 kts 128°
2026-05-06 12:23 51.59967 8.89601 8649 ft 234 kts 128°
2026-05-06 12:23 51.59038 8.91736 9135 ft 236 kts 128°
2026-05-06 12:23 51.58094 8.93900 9648 ft 237 kts 128°
2026-05-06 12:23 51.57151 8.96059 10160 ft 237 kts 128°
2026-05-06 12:24 51.56218 8.98195 10633 ft 237 kts 129°
2026-05-06 12:24 51.55279 9.00343 11123 ft 236 kts 129°
2026-05-06 12:24 51.54342 9.02486 11608 ft 236 kts 129°
2026-05-06 12:24 51.53395 9.04648 12117 ft 235 kts 129°
2026-05-06 12:25 51.52467 9.06766 12585 ft 234 kts 129°
2026-05-06 12:25 51.51541 9.08881 13070 ft 232 kts 128°
2026-05-06 12:25 51.51171 9.11378 13588 ft 242 kts 85°
2026-05-06 12:25 51.51855 9.13926 13753 ft 259 kts 55°
2026-05-06 12:26 51.52943 9.16320 13776 ft 276 kts 54°
2026-05-06 12:26 51.54106 9.18868 13774 ft 289 kts 54°
2026-05-06 12:26 51.55304 9.21505 13778 ft 300 kts 54°
2026-05-06 12:26 51.56557 9.24268 13772 ft 307 kts 54°
2026-05-06 12:27 51.57814 9.27043 13782 ft 313 kts 54°
2026-05-06 12:27 51.59112 9.29912 13778 ft 316 kts 54°
2026-05-06 12:27 51.60396 9.32752 13771 ft 316 kts 54°
2026-05-06 12:27 51.61681 9.35599 13770 ft 315 kts 54°
2026-05-06 12:28 51.62967 9.38452 13767 ft 315 kts 54°
2026-05-06 12:28 51.64235 9.41266 13760 ft 314 kts 54°
2026-05-06 12:28 51.65518 9.44115 13763 ft 313 kts 54°
2026-05-06 12:28 51.66783 9.46931 13752 ft 312 kts 54°
2026-05-06 12:29 51.68053 9.49758 13749 ft 311 kts 54°
2026-05-06 12:29 51.69459 9.52418 13768 ft 310 kts 45°
2026-05-06 12:29 51.70959 9.54889 13760 ft 310 kts 45°
2026-05-06 12:29 51.72465 9.57353 13771 ft 311 kts 45°
2026-05-06 12:30 51.74001 9.59864 13759 ft 312 kts 45°
2026-05-06 12:30 51.75509 9.62332 13759 ft 312 kts 45°
2026-05-06 12:30 51.77039 9.64837 13762 ft 312 kts 45°
2026-05-06 12:30 51.78561 9.67332 13750 ft 312 kts 46°
2026-05-06 12:31 51.80071 9.69810 13762 ft 312 kts 46°
2026-05-06 12:31 51.81591 9.72307 13764 ft 312 kts 46°
2026-05-06 12:31 51.83110 9.74805 13765 ft 312 kts 46°
2026-05-06 12:31 51.84624 9.77299 13765 ft 312 kts 46°
2026-05-06 12:32 51.86147 9.79748 13756 ft 311 kts 40°
2026-05-06 12:32 51.88126 9.81064 13779 ft 308 kts
2026-05-06 12:32 51.90248 9.81578 13777 ft 308 kts
2026-05-06 12:32 51.92368 9.82020 13782 ft 308 kts
2026-05-06 12:33 51.94472 9.82438 13775 ft 308 kts
2026-05-06 12:33 51.96601 9.82859 13784 ft 309 kts
2026-05-06 12:33 51.98735 9.83272 13777 ft 309 kts
2026-05-06 12:33 52.00879 9.83691 13782 ft 309 kts
2026-05-06 12:34 52.02992 9.84101 13784 ft 309 kts
2026-05-06 12:34 52.05140 9.84517 13783 ft 309 kts
2026-05-06 12:34 52.07268 9.84931 13789 ft 309 kts
2026-05-06 12:34 52.09399 9.85347 13782 ft 309 kts
2026-05-06 12:35 52.11534 9.85767 13774 ft 309 kts
2026-05-06 12:35 52.13652 9.86175 13776 ft 309 kts
2026-05-06 12:35 52.15778 9.86599 13778 ft 309 kts
2026-05-06 12:35 52.17909 9.87014 13775 ft 309 kts
2026-05-06 12:36 52.20028 9.87427 13787 ft 309 kts
2026-05-06 12:36 52.22185 9.87855 13791 ft 309 kts
2026-05-06 12:36 52.24292 9.88262 13782 ft 308 kts
2026-05-06 12:36 52.26384 9.89011 13772 ft 309 kts 13°
2026-05-06 12:37 52.28473 9.89912 13793 ft 309 kts 14°
2026-05-06 12:37 52.30551 9.90819 13791 ft 309 kts 14°
2026-05-06 12:37 52.32623 9.91729 13803 ft 309 kts 14°
2026-05-06 12:37 52.34687 9.92641 13798 ft 309 kts 14°
2026-05-06 12:38 52.36752 9.93547 13787 ft 309 kts 14°
2026-05-06 12:38 52.38826 9.94458 13795 ft 309 kts 14°
2026-05-06 12:38 52.40894 9.95369 13789 ft 308 kts 15°
2026-05-06 12:38 52.42974 9.96288 13799 ft 308 kts 15°
2026-05-06 12:39 52.45023 9.97197 13794 ft 309 kts 14°
2026-05-06 12:39 52.47097 9.98108 13792 ft 308 kts 14°
2026-05-06 12:39 52.49167 9.99023 13790 ft 308 kts 15°
2026-05-06 12:39 52.51213 9.99929 13798 ft 307 kts 15°
2026-05-06 12:40 52.53274 10.00844 13804 ft 307 kts 15°
2026-05-06 12:40 52.55334 10.01761 13805 ft 307 kts 14°
2026-05-06 12:40 52.57417 10.02548 13792 ft 306 kts 20°
2026-05-06 12:40 52.59457 10.03545 13806 ft 306 kts 17°
2026-05-06 12:41 52.61486 10.04485 13804 ft 305 kts 15°
2026-05-06 12:41 52.63519 10.05407 13811 ft 303 kts 16°
2026-05-06 12:41 52.65551 10.06318 13802 ft 300 kts 15°
2026-05-06 12:41 52.67558 10.07218 13810 ft 297 kts 16°
2026-05-06 12:42 52.69526 10.08102 13810 ft 295 kts 16°
2026-05-06 12:42 52.71493 10.08985 13810 ft 294 kts 15°
2026-05-06 12:42 52.73466 10.09875 13803 ft 293 kts 15°
2026-05-06 12:42 52.75435 10.10758 13809 ft 292 kts 15°
2026-05-06 12:43 52.77386 10.11619 13812 ft 291 kts 13°
2026-05-06 12:43 52.79415 10.11824 13654 ft 293 kts
2026-05-06 12:43 52.81428 10.11898 13467 ft 291 kts
2026-05-06 12:43 52.83425 10.11957 13277 ft 289 kts
2026-05-06 12:44 52.85429 10.12027 13085 ft 288 kts
2026-05-06 12:44 52.87427 10.12091 12887 ft 288 kts
2026-05-06 12:44 52.89446 10.12161 12695 ft 291 kts
2026-05-06 12:44 52.91478 10.12228 12505 ft 293 kts
2026-05-06 12:45 52.93510 10.12295 12272 ft 296 kts
2026-05-06 12:45 52.95570 10.12362 12025 ft 298 kts
2026-05-06 12:45 52.99731 10.12499 11531 ft 295 kts
2026-05-06 12:46 53.01765 10.12567 11282 ft 292 kts
2026-05-06 12:46 53.03775 10.12634 11037 ft 288 kts
2026-05-06 12:46 53.05759 10.12699 10789 ft 285 kts
2026-05-06 12:46 53.07715 10.12760 10541 ft 283 kts
2026-05-06 12:47 53.09569 10.11807 10264 ft 280 kts 326°
2026-05-06 12:47 53.11103 10.09948 10021 ft 272 kts 323°
2026-05-06 12:47 53.12607 10.08086 9862 ft 264 kts 323°
2026-05-06 12:47 53.14050 10.06290 9823 ft 253 kts 323°
2026-05-06 12:48 53.15443 10.04548 9826 ft 251 kts 323°
2026-05-06 12:48 53.16828 10.02810 9828 ft 250 kts 323°
2026-05-06 12:48 53.18227 10.01056 9814 ft 250 kts 324°
2026-05-06 12:48 53.19606 9.99322 9810 ft 249 kts 323°
2026-05-06 12:49 53.21014 9.97541 9431 ft 263 kts 323°
2026-05-06 12:49 53.22487 9.95665 9067 ft 270 kts 324°
2026-05-06 12:49 53.23985 9.93737 8682 ft 274 kts 324°
2026-05-06 12:49 53.25484 9.91789 8342 ft 274 kts 324°
2026-05-06 12:50 53.26971 9.89841 7926 ft 271 kts 323°
2026-05-06 12:50 53.28436 9.87911 7541 ft 269 kts 324°
2026-05-06 12:50 53.29888 9.85973 7136 ft 267 kts 323°
2026-05-06 12:50 53.31323 9.84024 6742 ft 266 kts 323°
2026-05-06 12:51 53.32740 9.82076 6364 ft 265 kts 324°
2026-05-06 12:51 53.34167 9.80116 5979 ft 263 kts 324°
2026-05-06 12:51 53.35555 9.78189 5602 ft 261 kts 323°
2026-05-06 12:51 53.36930 9.76266 5247 ft 256 kts 321°
2026-05-06 12:52 53.38273 9.74364 4866 ft 250 kts 324°
2026-05-06 12:52 53.39563 9.72494 4478 ft 245 kts 323°
2026-05-06 12:52 53.40836 9.70636 4084 ft 242 kts 323°
2026-05-06 12:52 53.42096 9.68782 3698 ft 239 kts 323°
2026-05-06 12:53 53.43325 9.66948 3323 ft 237 kts 324°
2026-05-06 12:53 53.44694 9.65787 3042 ft 215 kts
2026-05-06 12:53 53.46063 9.66384 2987 ft 194 kts 29°
2026-05-06 12:53 53.47088 9.67689 2979 ft 180 kts 42°
2026-05-06 12:54 53.47977 9.69081 2974 ft 171 kts 46°
2026-05-06 12:54 53.48786 9.70490 2977 ft 164 kts 49°
2026-05-06 12:54 53.49538 9.71876 2981 ft 160 kts 50°
2026-05-06 12:54 53.50267 9.73268 2987 ft 157 kts 50°
2026-05-06 12:55 53.50973 9.74646 2985 ft 155 kts 51°
2026-05-06 12:55 53.51674 9.76025 2985 ft 153 kts 51°
2026-05-06 12:55 53.52359 9.77385 2931 ft 155 kts 51°
2026-05-06 12:55 53.53066 9.78796 2758 ft 163 kts 51°
2026-05-06 12:56 53.53815 9.80291 2559 ft 168 kts 51°
2026-05-06 12:56 53.54560 9.81782 2341 ft 166 kts 51°
2026-05-06 12:56 53.55293 9.83251 2115 ft 162 kts 50°
2026-05-06 12:56 53.55992 9.84652 1891 ft 153 kts 50°
2026-05-06 12:57 53.56663 9.85999 1684 ft 145 kts 50°
2026-05-06 12:57 53.57295 9.87266 1493 ft 140 kts 50°
2026-05-06 12:57 53.57906 9.88503 1309 ft 136 kts 49°
2026-05-06 12:57 53.58517 9.89716 1126 ft 134 kts 50°
2026-05-06 12:58 53.59096 9.90900 947 ft 130 kts 49°
2026-05-06 12:58 53.59647 9.91981 772 ft 111 kts 51°
2026-05-06 12:58 53.60086 9.92878 647 ft 93 kts 51°
2026-05-06 12:58 53.60466 9.93649 544 ft 75 kts 50°
2026-05-06 12:59 53.60797 9.94318 434 ft 73 kts 53°
2026-05-06 12:59 53.61120 9.94983 332 ft 75 kts 50°
2026-05-06 12:59 53.61481 9.95675 196 ft 82 kts 52°
2026-05-06 12:59 53.61856 9.96429 96 ft 85 kts 49°
2026-05-06 13:00 53.62220 9.97164 30 ft 70 kts 50°
2026-05-06 13:00 53.62482 9.97684 24 ft 50 kts 51°
2026-05-06 13:00 53.62673 9.98100 29 ft 39 kts 50°
2026-05-06 13:00 53.62828 9.98409 34 ft 30 kts 51°
2026-05-06 13:01 53.62951 9.98648 34 ft 19 kts 51°
2026-05-06 13:01 53.63034 9.98835 31 ft 19 kts 59°
2026-05-06 13:01 53.63085 9.99048 30 ft 19 kts 78°
2026-05-06 13:01 53.63082 9.99211 30 ft 7 kts 126°
2026-05-06 13:02 53.63053 9.99256 29 ft 7 kts 193°
2026-05-06 13:02 53.62985 9.99150 30 ft 17 kts 230°
2026-05-06 13:02 53.62902 9.98982 32 ft 16 kts 230°
2026-05-06 13:02 53.62833 9.98845 34 ft 17 kts 231°
2026-05-06 13:03 53.62759 9.98822 34 ft 10 kts 153°
2026-05-06 13:03 53.62716 9.98838 34 ft 5 kts 220°
2026-05-06 13:03 53.62707 9.98815 34 ft 0 kts 241°